Live-Position
3D-Globus wird geladen...
Über Starlink 11616
Group: 3 satellites
Beschreibung wird geladen...
Nächste Überflüge
Passes for default location (London). Set your location on the main map for personalized predictions.
Höhenverlauf
Loading altitude history...
No altitude history available
Zweizeiliger Elementsatz
1 63137U 25043F 26125.83336806 .00033625 00000-0 26519-3 0 9992
2 63137 43.0003 265.9482 0001226 272.5783 64.8035 15.70775885 6020
Epoch: 5. Mai 2026 •
Age: 6 hours
Aktueller Status
Höhe 365.0 km
Geschwindigkeit 7.69 km/s
Subsatellitenpunkt -32.70°S,
32.4°W
Startdatum 3. März 2025
Alter 1.1 years
Typ internet
Startgruppe
Falcon 9 •
Group 12-20 •
21 satellites
Starlink 11609
63132
Starlink 11604 63133
Starlink 11605 63134
Starlink 11610 63135
Starlink 11613 63136
Starlink 11611 63138
Starlink 11628 63139
Starlink 11607 63140
Starlink 11522 63141
Starlink 11503 63142
Starlink 11579 63143
Starlink 11581 63144
Starlink 32949 63145
Starlink 32952 63146
Starlink 32936 63147
Starlink 32937 63148
Starlink 32939 63149
Starlink 32919 63150
Starlink 32876 63151
Starlink 32915 63152
Technische Details
Klassifizierung Payload
Masse 960.00 kg
Trockenmasse 910.00 kg
Gesamtmasse 960.00 kg
Länge 0.30 m
Durchmesser 4.10 m
Spannweite 29.00 m
Form Box + pan
Hersteller SPXS
Bus-Typ Starlink V2MD
Phasenstatus In Orbit
Besitzer/Staat SPXS/US
Most Searched
Loading...